#timestamp,LO_Frequency,Hit,StdDev 
1650906015.6,286047000.7,N
1650906035.4,286047000.1,N
1650906055.3,286047002.0,N
1650906075.1,286047001.8,N
1650906095.8,286047001.7,N
1650906115.7,286047004.0,N
1650906135.5,286047001.7,N
1650906155.4,286047004.4,N
1650906175.2,286047004.4,N
1650906195.0,286047001.7,N
1650906195.9,286047001.7,N
1650906215.8,286047001.7,N
1650906235.6,286047004.4,N
1650906255.4,286047004.1,N
1650906275.3,286047003.5,N
1650906295.1,286047004.0,N
1650906315.9,286047003.7,N
1650906335.7,286047003.2,N
1650906355.5,286047003.3,N
1650906375.4,286047002.0,N
1650906395.2,286047004.0,N
1650906415.0,286047004.3,N
1650906415.9,286047004.3,N
1650906435.8,286047004.4,N
1650906455.6,286047001.7,N
1650906475.5,286047002.2,N
1650906495.3,286047002.1,N
1650906515.1,286047002.4,N
1650906535.9,286047000.1,N
1650906555.7,286047004.1,N
1650906575.5,286047003.9,N
1650906595.4,286047001.8,N
1650906615.2,286047004.1,Y
1650906635.1,286046999.7,P
1650906636.0,286046999.7,N
1650906655.8,286047000.5,N
1650906675.6,286047001.0,N
1650906695.5,286046998.2,N
1650906715.3,286046998.8,N
1650906735.1,286047001.1,N
1650906755.9,286046998.1,N
1650906775.7,286047000.8,N
1650906795.6,286047000.6,N
1650906815.4,286046998.2,N
1650906835.2,286046999.9,N
1650906855.1,286047000.9,N
1650906856.0,286047000.9,N
1650906875.8,286046999.4,N
1650906895.7,286046999.1,N
1650906915.5,286046998.7,N
1650906935.3,286046998.7,N
1650906955.2,286046998.9,N
1650906975.9,286046999.6,N
1650906995.7,286046996.9,N
1650907015.6,286046996.7,N
1650907035.4,286046997.1,N
1650907055.3,286046999.4,N
1650907075.1,286047001.1,N
1650907076.0,286047001.1,N
1650907095.8,286047001.0,N
1650907115.7,286046998.1,N
1650907135.5,286046998.4,N
1650907155.3,286046999.1,N
1650907175.2,286046998.1,N
1650907195.0,286046998.1,N
1650907195.9,286046998.1,N
1650907215.8,286047001.2,N
1650907235.6,286046999.6,N
1650907255.4,286046999.4,N
1650907275.3,286046998.4,N
1650907295.1,286046998.2,N
1650907315.8,286047001.2,N
1650907335.7,286046999.7,N
1650907355.5,286047000.5,N
1650907375.4,286047000.1,N
1650907395.2,286047002.5,N
1650907415.0,286047002.2,N
1650907415.9,286047002.2,N
1650907435.8,286046999.7,N
1650907455.6,286047000.4,N
1650907475.4,286047000.6,N
1650907495.3,286047000.5,N
1650907515.1,286047001.1,N
1650907565.9,286047000.3,E
1650907575.8,286047000.8,N
1650907595.7,286047000.0,P
1650907615.5,286046998.1,P
1650907635.3,286046998.8,N
1650907655.2,286047000.4,N
1650907675.0,286047001.0,N
1650907675.9,286047001.0,N
1650907695.7,286047000.8,N
1650907715.6,286046998.2,N
1650907735.4,286046999.3,N
1650907755.3,286046998.8,N
1650907775.1,286046998.2,N
1650907776.0,286046998.2,N
1650907795.8,286047000.7,N
1650907815.7,286046998.1,N
1650907835.5,286046999.9,N
1650907855.3,286047000.2,N
1650907875.2,286047000.7,N
1650907895.0,286047000.9,N
1650907895.9,286047000.9,N
1650907915.8,286047000.7,N
1650907935.6,286047002.7,N
1650907955.4,286047000.3,N
1650907975.3,286047000.9,N
1650907995.1,286047000.8,N
1650908015.9,286047000.1,N
1650908035.7,286047000.8,N
1650908055.5,286047000.8,N
1650908075.4,286046998.5,N
1650908095.2,286047001.1,N
1650908115.1,286046998.5,N
1650908116.0,286046998.5,N
1650908135.8,286047000.9,N
1650908155.6,286046999.2,N
1650908175.5,286046998.7,N
1650908195.3,286046999.3,N
1650908215.1,286046999.6,N
1650908235.9,286046999.1,N
1650908255.7,286047001.0,N
1650908275.6,286047011.9,Y
1650908295.4,286047000.7,P
1650908315.2,286047002.8,P
1650908335.1,286046998.1,N
1650908336.0,286046998.1,N
1650908355.8,286046998.5,N
1650908375.7,286046998.1,N
1650908395.5,286047001.2,N
1650908415.3,286046999.9,N
1650908435.2,286047000.4,N
1650908455.9,286047001.1,N
1650908475.7,286046998.1,N
1650908495.6,286046998.5,N
1650908515.4,286046999.0,N
1650908535.2,286047001.1,N
1650908555.1,286046998.5,N
1650908556.0,286046998.5,N
1650908575.8,286046998.8,N
1650908595.7,286046998.5,N
1650908615.5,286047000.6,N
1650908635.3,286047000.9,N
1650908655.2,286047000.6,N
1650908675.0,286046999.0,N
1650908675.9,286046999.0,N
1650908695.8,286047000.3,N
1650908715.6,286047002.3,N
1650908735.4,286047002.3,N
1650908755.3,286047000.9,N
1650908775.1,286046999.7,N
1650908795.8,286047000.0,N
1650908815.7,286047001.0,N
1650908835.5,286047000.8,N
1650908855.3,286046998.6,N
1650908875.2,286046997.0,N
1650908895.0,286046998.0,N
1650908895.9,286046998.0,N
1650908915.8,286046997.7,N
1650908935.6,286046997.7,N
1650908955.4,286046997.5,N
1650908975.3,286046997.6,N
1650908995.1,286046995.7,N
1650909015.9,286046995.7,N
1650909035.7,286046995.6,N
1650909055.5,286046995.1,N
1650909075.4,286046995.0,N
1650909095.2,286046995.0,N
1650909115.0,286046995.5,N
1650909115.9,286046995.5,N
1650909135.8,286046995.3,N
1650909155.6,286046997.8,N
1650909175.5,286046997.3,N
1650909195.3,286046995.3,N
1650909215.1,286046995.8,N
1650909235.9,286046995.8,N
1650909255.7,286046995.9,N
1650909275.5,286046993.6,N
1650909295.4,286046996.4,N
1650909315.2,286046996.3,N
1650909335.1,286046993.6,Y
1650909336.0,286046993.6,P
1650909355.8,286046997.4,N
1650909375.6,286046997.7,N
1650909395.5,286046995.3,N
1650909415.3,286046998.0,N
1650909435.2,286046995.6,N
1650909455.9,286046996.2,N
1650909475.7,286046995.1,Y
1650909495.6,286047000.0,P
1650909515.4,286047000.4,N
1650909535.2,286047000.3,N
1650909555.1,286047002.0,N
1650909556.0,286047002.0,N
1650909575.8,286047000.0,N
1650909595.7,286047000.5,N
